TimeEDT,TemperatureF,Dew PointF,Humidity,Sea Level PressureIn,VisibilityMPH,Wind Direction,Wind SpeedMPH,Gust SpeedMPH,PrecipitationIn,Events,Conditions,WindDirDegrees,DateUTC
12:54 AM,57.9,55.0,90,29.99,10.0,Calm,Calm,-,N/A,,Clear,0,2013-09-25 04:54:00
1:54 AM,55.9,53.1,90,29.98,10.0,Calm,Calm,-,N/A,,Clear,0,2013-09-25 05:54:00
2:54 AM,55.0,52.0,89,29.97,10.0,Calm,Calm,-,N/A,,Clear,0,2013-09-25 06:54:00
3:54 AM,55.0,52.0,89,29.96,10.0,Calm,Calm,-,N/A,,Clear,0,2013-09-25 07:54:00
4:54 AM,54.0,51.1,90,29.96,9.0,Calm,Calm,-,N/A,,Clear,0,2013-09-25 08:54:00
5:54 AM,53.1,51.1,93,29.95,10.0,Calm,Calm,-,N/A,,Clear,0,2013-09-25 09:54:00
6:54 AM,54.0,51.1,90,29.95,9.0,Calm,Calm,-,0.01,,Clear,0,2013-09-25 10:54:00
7:54 AM,57.0,54.0,89,29.95,10.0,Calm,Calm,-,N/A,,Clear,0,2013-09-25 11:54:00
8:54 AM,66.0,60.1,81,29.95,10.0,Calm,Calm,-,N/A,,Clear,0,2013-09-25 12:54:00
9:54 AM,70.0,57.9,65,29.94,10.0,East,8.1,-,N/A,,Clear,100,2013-09-25 13:54:00
10:54 AM,71.1,55.9,59,29.96,10.0,ENE,6.9,-,N/A,,Clear,60,2013-09-25 14:54:00
11:54 AM,72.0,55.9,57,29.95,10.0,Variable,3.5,-,N/A,,Mostly Cloudy,0,2013-09-25 15:54:00
12:54 PM,72.0,57.9,61,29.94,10.0,NNE,6.9,-,N/A,,Mostly Cloudy,20,2013-09-25 16:54:00
1:54 PM,72.0,57.0,59,29.92,10.0,East,5.8,-,N/A,,Overcast,80,2013-09-25 17:54:00
2:54 PM,72.0,57.0,59,29.91,10.0,East,5.8,-,N/A,,Scattered Clouds,80,2013-09-25 18:54:00
3:54 PM,73.0,57.0,57,29.91,10.0,Variable,3.5,-,N/A,,Overcast,0,2013-09-25 19:54:00
4:54 PM,73.9,57.9,57,29.88,10.0,NE,6.9,-,N/A,,Clear,50,2013-09-25 20:54:00
5:54 PM,72.0,59.0,64,29.89,10.0,East,3.5,-,N/A,,Mostly Cloudy,80,2013-09-25 21:54:00
6:54 PM,69.1,57.9,68,29.89,10.0,ENE,3.5,-,N/A,,Scattered Clouds,60,2013-09-25 22:54:00
7:54 PM,66.9,60.1,79,29.90,10.0,Calm,Calm,-,N/A,,Mostly Cloudy,0,2013-09-25 23:54:00
8:54 PM,66.9,61.0,81,29.90,10.0,Calm,Calm,-,N/A,,Clear,0,2013-09-26 00:54:00
9:54 PM,66.0,62.1,87,29.89,10.0,Calm,Calm,-,0.01,Rain,Light Rain,0,2013-09-26 01:54:00
10:54 PM,64.9,63.0,93,29.89,8.0,Calm,Calm,-,0.00,,Clear,0,2013-09-26 02:54:00
11:54 PM,64.0,62.1,93,29.89,10.0,East,3.5,-,N/A,,Mostly Cloudy,80,2013-09-26 03:54:00